OBJECT M, 66677

Orbit data source: Space-Track

You're viewing an Uncataloged Satellite

Recently launched and/or uncataloged satellites may have evolving metadata. Metadata may include but not limited to: Owner, Maufacturer, Bus, Motor, and Mission.

OBJECT M, 66677 is a satellite in SSO that was launched on Fri, 28 Nov 2025 UTC via an FALCON 9 launch vehicle from the Air Force Western Test Range (AFWTR). Unknown objects in Earth's orbit typically refer to objects detected orbiting the Earth but have not yet been identified or cataloged. These objects could be anything from previously untracked satellites, spent rocket stages, debris from satellite collisions, or even natural meteoroids temporarily captured by Earth's gravity.

Loading next visibility...
Identifier
66677, 2025-276M
Orbit
SSO
Country
Flag of TBDTBD
Related business
None
Manufacturer
Unknown
Mission
Operational Amateur Technology
Bus & Motor
Unknown
Mass
Unknown
Launch date (UTC)
2025-11-28 (2 months ago)
Launch vehicle
FALCON 9
Launch site
Air Force Western Test Range (AFWTR)
Object type
Unknown
Shape & HBR
Box + 2 Ant, 0.1 m
Radar Cross Section
0.006 m²

Expand to show TLE details & history
Last TLE update: 23 hours ago

TLE from 23 hours ago
0 OBJECT M
1 66677U 25276M   26034.14408108  .00014883  00000-0  71406-3 0  9990
2 66677  97.4323 109.9928 0006077 116.9758 243.2098 15.18962041 10070
Epoch: 2026-02-03T03:27Z
TLE epoch observation values (Epoch: 2026-02-03T03:27:28.605Z)
Latitude
0.00002°
Longitude
-75.20562°
Altitude
513.953 km
Speed
7.606 km/s
True Right ascension
07h 19m 58s
True Declination
0° 00' 00"
Sunlit
Object was in full shadow at epoch
Visualization orbit readout
Latitude
Unknown
Longitude
Unknown
Altitude
Unknown
Speed
Unknown
Apparent Right ascension
Unknown
Apparent Declination
Unknown
Sunlit
N/A
Visualization observer readout
Local Sidereal Time
04:10:20
Azimuth
Unknown
Elevation
Unknown
Doppler factor
Unknown
Orbital elements
Apogee altitude
510.128 km
Perigee altitude
501.761 km
Semi-major axis
6,884.082 km
Eccentricity
0.00061
Inclination
97.4323°
RAAN
109.9928°
Arg. of periapsis
116.9758°
True anomaly
243.14766°
Mean anomaly
243.2098°
Eccentric anomaly
243.17873°
Mean motion
3.79992 °/min
Orbital period
94.74 mins
BSTAR
0.00071406
Loading maneuver chart data...
Computing Atmospheric mass density...
Loading historical data...
Loading historical data...
Loading historical data...
Loading historical data...
Loading historical data...
Loading historical data...
Loading historical data...

Documentation

Showing up to 5 results
|